Погода в Яблонице

Украина / Ивано-Франковская область     48°00′37″N   24°54′56″E
темп.,
°C
ветер,
м/с
пор.,
м/с
влажн.,
%
обл.,
%
осадки,
мм/ч
давл.,
гПа
погр.,
м
9 мая, вс
вс900:00−1юз229310 0.0 102519
03:00−2юз229396 0.0 102634
06:00−2юз229413 0.0 102737
09:00+6зюз136013 0.0 1025658
12:00+12зсз13365 0.0 10231889
15:00+14з23335 0.0 10222045
18:00+13з12405 0.0 10221660
21:00+5ююз117966 0.0 102515
10 мая, пн
пн1000:00+3ююз22835 0.0 102623
03:00+3ююз22825 0.0 102622
06:00+3ююз22795 0.0 102520
09:00+12ююв12485 0.0 1022331
12:00+19в12355 0.0 10201238
15:00+22св12325 0.0 10181876
18:00+19всв22465 0.0 1018744
21:00+10ююв11845 0.0 102113
11 мая, вт
вт1100:00+8ююз21885 0.0 102113
03:00+8ююз21875 0.0 102012
06:00+7ююз21870 0.0 102012
09:00+14в12620 0.0 1018409
12:00+19всв23430 0.0 10161277
15:00+19в43380 0.0 10151502
18:00+16в55500 0.0 1015957
21:00+9вюв21860 0.0 101615
12 мая, ср
ср1200:00+6ююв22930 0.0 101722
03:00+5ююв22918 0.0 101521
06:00+4ю22885 0.0 101427
09:00+11в24605 0.0 1011734
12:00+14в436079 0.0 10091262
15:00+12всв336969 0.1 1008842
18:00+10вюв248096 0.1 1008716
21:00+8в1390100 0.1 1007388
13 мая, чт
чт1300:00+7вюв129472 0.0 1006119
03:00+7ю2294100 0.0 100461
06:00+9ююз1288100 0.0 100236
09:00+10юз2687100 0.8 1001476
12:00+8ююз2794100 2.3 1003508
15:00+9юз41088100 2.9 10031181
18:00+9ююз3988100 0.0 1005912
21:00+8ю2489100 0.1 1006115